| time (UTC) | temp C | wind direction | speed KPH | gust KPH | rain 1hr cm | rain 24hr cm | rain mn cm | humidity % | barometer mb |
| 20260505140455 | 3 | 134 | 9.7 | 14.5 | 0.00 | 0.00 | 0.00 | 87 | 1011.1 |
| 20260505124909 | 4 | 115 | 9.7 | 16.1 | 0.00 | 0.00 | 0.00 | 90 | 1009.8 |
| 20260505124406 | 4 | 102 | 11.3 | 12.9 | 0.00 | 0.00 | 0.00 | 90 | 1009.8 |
| 20260505123902 | 4 | 135 | 6.4 | 14.5 | 0.00 | 0.00 | 0.00 | 90 | 1010.0 |
| 20260505123359 | 4 | 135 | 4.8 | 11.3 | 0.00 | 0.00 | 0.00 | 90 | 1009.8 |
| 20260505122855 | 4 | 124 | 6.4 | 11.3 | 0.00 | 0.00 | 0.00 | 89 | 1009.8 |
| 20260505122352 | 4 | 76 | 11.3 | 12.9 | 0.00 | 0.00 | 0.00 | 89 | 1009.7 |
| 20260505121849 | 4 | 106 | 6.4 | 8.0 | 0.00 | 0.00 | 0.00 | 88 | 1009.4 |
| 20260505121346 | 4 | 137 | 4.8 | 9.7 | 0.00 | 0.00 | 0.00 | 88 | 1009.5 |
| 20260505120842 | 5 | 72 | 4.8 | 8.0 | 0.00 | 0.00 | 0.00 | 87 | 1009.5 |
| 20260505120338 | 4 | 81 | 0.0 | 6.4 | 0.00 | 0.00 | 0.00 | 87 | 1009.4 |
| 20260505115837 | 4 | 283 | 0.0 | 8.0 | 0.00 | 0.00 | 0.00 | 87 | 1009.4 |
| 20260505115334 | 5 | 87 | 3.2 | 11.3 | 0.00 | 0.00 | 0.00 | 86 | 1009.5 |
| 20260505114832 | 5 | 146 | 6.4 | 9.7 | 0.00 | 0.00 | 0.00 | 86 | 1009.1 |
| 20260505114328 | 5 | 117 | 3.2 | 8.0 | 0.00 | 0.00 | 0.00 | 86 | 1009.2 |
| 20260505113825 | 5 | 165 | 3.2 | 9.7 | 0.00 | 0.00 | 0.00 | 85 | 1009.1 |
| 20260505113321 | 5 | 123 | 1.6 | 8.0 | 0.00 | 0.00 | 0.00 | 86 | 1009.2 |
| 20260505112817 | 5 | 145 | 4.8 | 9.7 | 0.00 | 0.00 | 0.00 | 86 | 1009.0 |
| 20260505112315 | 5 | 321 | 0.0 | 6.4 | 0.00 | 0.00 | 0.00 | 86 | 1009.1 |
| 20260505111810 | 5 | 161 | 0.0 | 4.8 | 0.00 | 0.00 | 0.00 | 86 | 1008.7 |
| 20260505111306 | 5 | 165 | 3.2 | 6.4 | 0.00 | 0.00 | 0.00 | 86 | 1009.2 |
| 20260505110802 | 5 | 148 | 6.4 | 8.0 | 0.00 | 0.00 | 0.00 | 86 | 1009.2 |
| 20260505110300 | 5 | 115 | 4.8 | 8.0 | 0.00 | 0.00 | 0.00 | 88 | 1009.1 |
| 20260505101734 | 5 | 134 | 6.4 | 8.0 | 0.00 | 0.00 | 0.00 | 92 | 1009.0 |
| 20260505101230 | 5 | 142 | 6.4 | 9.7 | 0.00 | 0.00 | 0.00 | 91 | 1009.1 |
| 20260505100726 | 5 | 145 | 4.8 | 4.8 | 0.00 | 0.00 | 0.00 | 91 | 1009.0 |
| 20260505100223 | 5 | 176 | 4.8 | 4.8 | 0.00 | 0.00 | 0.00 | 91 | 1009.0 |
| 20260505095724 | 5 | 131 | 3.2 | 4.8 | 0.00 | 0.00 | 0.00 | 90 | 1009.0 |
| 20260505095222 | 5 | 128 | 4.8 | 4.8 | 0.00 | 0.00 | 0.00 | 90 | 1009.0 |
| 20260505094717 | 5 | 162 | 3.2 | 4.8 | 0.00 | 0.00 | 0.00 | 90 | 1009.0 |
| 20260505094214 | 5 | 152 | 6.4 | 6.4 | 0.00 | 0.00 | 0.00 | 89 | 1008.7 |
| 20260505093710 | 5 | 131 | 3.2 | 8.0 | 0.00 | 0.00 | 0.00 | 88 | 1008.9 |
| 20260505093208 | 5 | 157 | 4.8 | 6.4 | 0.00 | 0.00 | 0.00 | 88 | 1008.6 |
| 20260505092704 | 5 | 141 | 4.8 | 6.4 | 0.00 | 0.00 | 0.00 | 87 | 1008.9 |
| 20260505092203 | 6 | 27 | 1.6 | 3.2 | 0.00 | 0.00 | 0.00 | 86 | 1008.9 |
| 20260505091700 | 6 | 28 | 1.6 | 4.8 | 0.00 | 0.00 | 0.00 | 86 | 1008.9 |
| 20260505091158 | 6 | 85 | 4.8 | 6.4 | 0.00 | 0.00 | 0.00 | 86 | 1008.6 |
| 20260505090655 | 6 | 54 | 4.8 | 4.8 | 0.00 | 0.00 | 0.00 | 86 | 1008.6 |
| 20260505090154 | 6 | 22 | 4.8 | 8.0 | 0.00 | 0.00 | 0.00 | 85 | 1008.7 |
| 20260505085650 | 6 | 323 | 1.6 | 9.7 | 0.00 | 0.00 | 0.00 | 86 | 1008.9 |
| 20260505085149 | 6 | 23 | 8.0 | 8.0 | 0.00 | 0.00 | 0.00 | 85 | 1009.1 |
| 20260505084646 | 6 | 11 | 6.4 | 8.0 | 0.00 | 0.00 | 0.00 | 85 | 1009.4 |
| 20260505084144 | 6 | 29 | 6.4 | 8.0 | 0.00 | 0.00 | 0.00 | 85 | 1009.4 |
| 20260505083641 | 6 | 12 | 6.4 | 8.0 | 0.00 | 0.00 | 0.00 | 85 | 1009.5 |
| 20260505083138 | 6 | 31 | 3.2 | 6.4 | 0.00 | 0.00 | 0.00 | 84 | 1009.4 |
| 20260505082634 | 6 | 36 | 6.4 | 6.4 | 0.00 | 0.00 | 0.00 | 83 | 1009.4 |
| 20260505082131 | 6 | 40 | 4.8 | 8.0 | 0.00 | 0.00 | 0.00 | 83 | 1009.7 |
| 20260505081626 | 6 | 61 | 8.0 | 8.0 | 0.00 | 0.00 | 0.00 | 82 | 1009.4 |
| 20260505081125 | 6 | 39 | 4.8 | 8.0 | 0.00 | 0.00 | 0.00 | 83 | 1009.5 |
| 20260505080621 | 6 | 18 | 8.0 | 11.3 | 0.00 | 0.00 | 0.00 | 83 | 1009.6 |
| 20260505080117 | 7 | 37 | 3.2 | 6.4 | 0.00 | 0.00 | 0.00 | 85 | 1010.0 |
| 20260505075613 | 7 | 11 | 4.8 | 8.0 | 0.00 | 0.00 | 0.00 | 84 | 1009.6 |
| 20260505075110 | 7 | 6 | 8.0 | 9.7 | 0.00 | 0.00 | 0.00 | 84 | 1009.7 |
| 20260505074607 | 7 | 23 | 4.8 | 9.7 | 0.00 | 0.00 | 0.00 | 83 | 1009.6 |
| 20260505074104 | 7 | 354 | 11.3 | 16.1 | 0.00 | 0.00 | 0.00 | 84 | 1009.6 |
| 20260505073602 | 7 | 21 | 8.0 | 9.7 | 0.00 | 0.00 | 0.00 | 86 | 1009.7 |
| 20260505073100 | 7 | 9 | 4.8 | 6.4 | 0.00 | 0.00 | 0.00 | 86 | 1009.7 |
| 20260505072555 | 7 | 19 | 8.0 | 11.3 | 0.00 | 0.00 | 0.00 | 86 | 1009.8 |
| 20260505072052 | 7 | 16 | 8.0 | 9.7 | 0.00 | 0.00 | 0.00 | 86 | 1009.7 |
| 20260505071547 | 7 | 348 | 9.7 | 14.5 | 0.00 | 0.00 | 0.00 | 86 | 1009.7 |
| 20260505071046 | 7 | 2 | 8.0 | 9.7 | 0.00 | 0.00 | 0.00 | 87 | 1009.7 |
| 20260505070543 | 7 | 355 | 4.8 | 8.0 | 0.00 | 0.00 | 0.00 | 87 | 1009.8 |
| 20260505070039 | 7 | 17 | 6.4 | 11.3 | 0.00 | 0.00 | 0.00 | 86 | 1009.8 |
| 20260505065535 | 6 | 12 | 6.4 | 9.7 | 0.00 | 0.00 | 0.00 | 87 | 1010.0 |
| 20260505065032 | 7 | 26 | 6.4 | 8.0 | 0.00 | 0.00 | 0.00 | 88 | 1009.7 |
| 20260505064528 | 7 | 40 | 4.8 | 6.4 | 0.00 | 0.00 | 0.00 | 88 | 1009.8 |
| 20260505064027 | 7 | 9 | 8.0 | 8.0 | 0.00 | 0.00 | 0.00 | 88 | 1010.0 |
| 20260505063524 | 7 | 352 | 3.2 | 9.7 | 0.00 | 0.00 | 0.00 | 87 | 1009.8 |
| 20260505063019 | 7 | 17 | 6.4 | 11.3 | 0.00 | 0.00 | 0.00 | 87 | 1009.8 |
| 20260505062517 | 7 | 3 | 8.0 | 9.7 | 0.00 | 0.00 | 0.00 | 87 | 1010.0 |
| 20260505062014 | 7 | 5 | 6.4 | 14.5 | 0.05 | 0.00 | 0.00 | 86 | 1009.8 |
| 20260505061511 | 7 | 34 | 6.4 | 11.3 | 0.05 | 0.00 | 0.00 | 86 | 1009.8 |
| 20260505061009 | 7 | 4 | 6.4 | 14.5 | 0.00 | 0.00 | 0.00 | 84 | 1010.2 |
| 20260505060506 | 7 | 358 | 6.4 | 8.0 | 0.05 | 0.00 | 0.00 | 83 | 1010.0 |
| 20260505060002 | 7 | 22 | 3.2 | 8.0 | 0.05 | 0.08 | 0.08 | 82 | 1010.1 |
| 20260505055458 | 7 | 313 | 3.2 | 11.3 | 0.00 | 0.05 | 0.05 | 82 | 1010.5 |
| 20260505054955 | 8 | 331 | 4.8 | 12.9 | 0.00 | 0.05 | 0.05 | 81 | 1010.6 |
| 20260505054452 | 7 | 354 | 4.8 | 12.9 | 0.05 | 0.05 | 0.05 | 79 | 1010.6 |
| 20260505053950 | 7 | 316 | 3.2 | 8.0 | 0.05 | 0.05 | 0.05 | 77 | 1010.3 |
| 20260505053447 | 8 | 10 | 6.4 | 11.3 | 0.00 | 0.05 | 0.05 | 77 | 1010.1 |
| 20260505052944 | 8 | 14 | 8.0 | 9.7 | 0.00 | 0.05 | 0.05 | 75 | 1010.2 |
| 20260505052441 | 8 | 11 | 9.7 | 11.3 | 0.00 | 0.05 | 0.05 | 73 | 1010.1 |
| 20260505051938 | 8 | 14 | 8.0 | 9.7 | 0.00 | 0.05 | 0.05 | 74 | 1010.2 |
| 20260505051435 | 8 | 342 | 4.8 | 4.8 | 0.00 | 0.05 | 0.05 | 74 | 1010.1 |
| 20260505050933 | 8 | 2 | 4.8 | 8.0 | 0.00 | 0.05 | 0.05 | 73 | 1010.2 |
| 20260505050431 | 8 | 11 | 9.7 | 16.1 | 0.00 | 0.05 | 0.05 | 72 | 1010.1 |
| 20260505041359 | 8 | 51 | 4.8 | 8.0 | 0.00 | 0.05 | 0.05 | 76 | 1009.5 |
| 20260505040856 | 8 | 19 | 6.4 | 6.4 | 0.00 | 0.05 | 0.05 | 75 | 1009.1 |
| 20260505040353 | 8 | 69 | 6.4 | 11.3 | 0.00 | 0.05 | 0.05 | 74 | 1009.2 |
| 20260505035850 | 8 | 15 | 9.7 | 11.3 | 0.00 | 0.05 | 0.05 | 73 | 1009.2 |
| 20260505035345 | 8 | 58 | 9.7 | 14.5 | 0.00 | 0.05 | 0.05 | 72 | 1009.4 |
| 20260505034843 | 8 | 339 | 6.4 | 14.5 | 0.00 | 0.05 | 0.05 | 72 | 1009.2 |
| 20260505034339 | 8 | 335 | 8.0 | 16.1 | 0.00 | 0.05 | 0.05 | 72 | 1009.4 |
| 20260505033837 | 8 | 357 | 4.8 | 14.5 | 0.00 | 0.05 | 0.05 | 72 | 1009.4 |
| 20260505033333 | 8 | 4 | 6.4 | 19.3 | 0.00 | 0.05 | 0.05 | 71 | 1009.4 |
| 20260505032832 | 8 | 342 | 6.4 | 11.3 | 0.00 | 0.05 | 0.05 | 72 | 1009.4 |
| 20260505032328 | 8 | 328 | 3.2 | 14.5 | 0.00 | 0.05 | 0.05 | 72 | 1009.1 |
| 20260505031825 | 8 | 15 | 6.4 | 11.3 | 0.00 | 0.05 | 0.05 | 73 | 1008.9 |
| 20260505031321 | 8 | 0 | 11.3 | 17.7 | 0.00 | 0.05 | 0.05 | 73 | 1008.9 |
| 20260505030819 | 8 | 14 | 11.3 | 19.3 | 0.00 | 0.05 | 0.05 | 74 | 1008.6 |
| 20260505030315 | 8 | 0 | 14.5 | 16.1 | 0.00 | 0.05 | 0.05 | 74 | 1008.9 |
| 20260505025810 | 8 | 8 | 8.0 | 19.3 | 0.00 | 0.05 | 0.05 | 74 | 1009.0 |
| 20260505025308 | 8 | 332 | 6.4 | 14.5 | 0.00 | 0.05 | 0.05 | 74 | 1008.6 |
| 20260505024807 | 8 | 11 | 9.7 | 19.3 | 0.00 | 0.05 | 0.05 | 74 | 1009.0 |
| 20260505024304 | 8 | 316 | 8.0 | 12.9 | 0.00 | 0.05 | 0.05 | 73 | 1009.0 |
| 20260505023801 | 8 | 358 | 12.9 | 24.1 | 0.00 | 0.05 | 0.05 | 72 | 1009.1 |
| 20260505023258 | 8 | 0 | 16.1 | 24.1 | 0.00 | 0.05 | 0.05 | 72 | 1008.7 |
| 20260505022755 | 8 | 348 | 11.3 | 17.7 | 0.00 | 0.05 | 0.05 | 73 | 1008.7 |
| 20260505022252 | 8 | 323 | 14.5 | 14.5 | 0.00 | 0.05 | 0.05 | 73 | 1008.9 |
| 20260505021749 | 8 | 359 | 9.7 | 27.4 | 0.00 | 0.05 | 0.05 | 73 | 1008.9 |
| 20260505021246 | 8 | 358 | 9.7 | 17.7 | 0.00 | 0.05 | 0.05 | 74 | 1008.6 |
| 20260505020741 | 8 | 350 | 11.3 | 17.7 | 0.00 | 0.05 | 0.05 | 72 | 1008.9 |
| 20260505020237 | 9 | 322 | 9.7 | 19.3 | 0.00 | 0.05 | 0.05 | 72 | 1009.1 |
| 20260505015734 | 9 | 14 | 19.3 | 29.0 | 0.00 | 0.05 | 0.05 | 71 | 1009.4 |
| 20260505015231 | 10 | 11 | 11.3 | 19.3 | 0.05 | 0.05 | 0.05 | 68 | 1008.9 |
| 20260505014728 | 10 | 4 | 9.7 | 14.5 | 0.18 | 0.05 | 0.05 | 67 | 1008.7 |
| 20260505014226 | 10 | 25 | 11.3 | 12.9 | 0.18 | 0.05 | 0.05 | 68 | 1008.7 |
| 20260505013722 | 10 | 359 | 9.7 | 12.9 | 0.05 | 0.03 | 0.03 | 66 | 1009.0 |
| 20260505013219 | 10 | 345 | 6.4 | 11.3 | 0.05 | 0.00 | 0.00 | 69 | 1008.9 |
| 20260505012718 | 10 | 350 | 11.3 | 12.9 | 0.05 | 0.00 | 0.00 | 67 | 1008.7 |
| 20260505012214 | 10 | 352 | 6.4 | 16.1 | 0.00 | 0.00 | 0.00 | 62 | 1008.9 |
| 20260505011710 | 11 | 6 | 19.3 | 22.5 | 0.00 | 0.00 | 0.00 | 59 | 1008.9 |
| 20260505011208 | 12 | 9 | 27.4 | 30.6 | 0.00 | 0.00 | 0.00 | 55 | 1008.5 |
| 20260505010703 | 13 | 297 | 6.4 | 8.0 | 0.00 | 0.00 | 0.00 | 43 | 1007.9 |
| 20260505010200 | 13 | 358 | 12.9 | 19.3 | 0.00 | 0.00 | 0.00 | 44 | 1007.9 |
| 20260505005655 | 13 | 8 | 3.2 | 8.0 | 0.00 | 0.00 | 0.00 | 44 | 1008.0 |
| 20260505005153 | 13 | 359 | 9.7 | 22.5 | 0.00 | 0.00 | 0.00 | 42 | 1008.0 |
| 20260505004650 | 14 | 349 | 8.0 | 22.5 | 0.00 | 0.00 | 0.00 | 38 | 1007.6 |
| 20260505004146 | 14 | 334 | 12.9 | 17.7 | 0.00 | 0.00 | 0.00 | 37 | 1007.5 |
| 20260505003644 | 14 | 359 | 11.3 | 20.9 | 0.00 | 0.00 | 0.00 | 36 | 1007.2 |
| 20260505003141 | 15 | 350 | 12.9 | 20.9 | 0.00 | 0.00 | 0.00 | 36 | 1007.0 |
| 20260505002637 | 15 | 5 | 14.5 | 19.3 | 0.00 | 0.00 | 0.00 | 36 | 1007.3 |
| 20260505002136 | 15 | 3 | 12.9 | 19.3 | 0.00 | 0.00 | 0.00 | 36 | 1006.7 |
| 20260505001632 | 15 | 18 | 20.9 | 32.2 | 0.00 | 0.00 | 0.00 | 36 | 1006.7 |
| 20260505001130 | 15 | 357 | 17.7 | 27.4 | 0.00 | 0.00 | 0.00 | 36 | 1006.5 |
| 20260505000627 | 15 | 7 | 24.1 | 25.7 | 0.00 | 0.00 | 0.00 | 36 | 1006.7 |
| 20260505000125 | 16 | 26 | 14.5 | 27.4 | 0.00 | 0.00 | 0.00 | 34 | 1006.5 |
| 20260504235621 | 16 | 8 | 11.3 | 16.1 | 0.00 | 0.00 | 0.00 | 34 | 1006.5 |
| 20260504235117 | 16 | 357 | 11.3 | 24.1 | 0.00 | 0.00 | 0.00 | 34 | 1006.5 |
| 20260504234615 | 16 | 1 | 9.7 | 16.1 | 0.00 | 0.00 | 0.00 | 34 | 1006.1 |
| 20260504234112 | 17 | 22 | 8.0 | 8.0 | 0.00 | 0.00 | 0.00 | 33 | 1006.2 |
| 20260504233607 | 17 | 83 | 8.0 | 9.7 | 0.00 | 0.00 | 0.00 | 33 | 1006.3 |
| 20260504233104 | 16 | 354 | 4.8 | 6.4 | 0.00 | 0.00 | 0.00 | 35 | 1006.4 |
| 20260504232601 | 16 | 143 | 0.0 | 3.2 | 0.00 | 0.00 | 0.00 | 35 | 1007.0 |
| 20260504232059 | 16 | 56 | 0.0 | 3.2 | 0.00 | 0.00 | 0.00 | 34 | 1006.7 |
| 20260504231555 | 17 | 323 | 3.2 | 3.2 | 0.00 | 0.00 | 0.00 | 34 | 1006.3 |
| 20260504231051 | 17 | 196 | 1.6 | 6.4 | 0.00 | 0.00 | 0.00 | 34 | 1006.4 |
| 20260504230547 | 17 | 302 | 1.6 | 4.8 | 0.00 | 0.00 | 0.00 | 34 | 1006.4 |
| 20260504230046 | 17 | 189 | 4.8 | 9.7 | 0.00 | 0.00 | 0.00 | 34 | 1006.5 |
| 20260504225543 | 17 | 237 | 0.0 | 4.8 | 0.00 | 0.00 | 0.00 | 36 | 1006.4 |
| 20260504225040 | 16 | 176 | 8.0 | 8.0 | 0.00 | 0.00 | 0.00 | 37 | 1006.7 |
| 20260504224537 | 15 | 177 | 6.4 | 8.0 | 0.00 | 0.00 | 0.00 | 39 | 1006.7 |
| 20260504224034 | 15 | 171 | 6.4 | 9.7 | 0.00 | 0.00 | 0.00 | 39 | 1006.8 |
| 20260504223531 | 15 | 186 | 14.5 | 19.3 | 0.00 | 0.00 | 0.00 | 41 | 1006.9 |
| 20260504223026 | 15 | 202 | 3.2 | 6.4 | 0.00 | 0.00 | 0.00 | 44 | 1007.0 |
| 20260504222523 | 15 | 194 | 8.0 | 9.7 | 0.00 | 0.00 | 0.00 | 40 | 1007.2 |
| 20260504222021 | 15 | 53 | 1.6 | 8.0 | 0.00 | 0.00 | 0.00 | 47 | 1006.9 |
| 20260504221518 | 13 | 173 | 6.4 | 6.4 | 0.00 | 0.00 | 0.00 | 43 | 1007.0 |
| 20260504221015 | 14 | 278 | 6.4 | 14.5 | 0.00 | 0.00 | 0.00 | 49 | 1007.5 |
| 20260504220511 | 15 | 318 | 8.0 | 14.5 | 0.00 | 0.00 | 0.00 | 36 | 1007.5 |
| 20260504220008 | 16 | 314 | 8.0 | 11.3 | 0.00 | 0.00 | 0.00 | 34 | 1007.3 |
| 20260504215505 | 16 | 308 | 9.7 | 22.5 | 0.00 | 0.00 | 0.00 | 31 | 1006.9 |
| 20260504215003 | 17 | 3 | 20.9 | 32.2 | 0.00 | 0.00 | 0.00 | 28 | 1006.3 |
| 20260504214458 | 17 | 307 | 8.0 | 24.1 | 0.00 | 0.00 | 0.00 | 26 | 1006.2 |
| 20260504213955 | 18 | 304 | 9.7 | 17.7 | 0.00 | 0.00 | 0.00 | 25 | 1005.8 |
| 20260504213450 | 18 | 332 | 8.0 | 9.7 | 0.00 | 0.00 | 0.00 | 24 | 1005.8 |
| 20260504212948 | 18 | 341 | 3.2 | 4.8 | 0.00 | 0.00 | 0.00 | 23 | 1005.9 |
| 20260504212444 | 18 | 357 | 4.8 | 6.4 | 0.00 | 0.00 | 0.00 | 23 | 1005.8 |
| 20260504211942 | 18 | 269 | 0.0 | 4.8 | 0.00 | 0.00 | 0.00 | 22 | 1005.9 |
| 20260504211438 | 19 | 352 | 0.0 | 3.2 | 0.00 | 0.00 | 0.00 | 22 | 1005.8 |
| 20260504210936 | 20 | 296 | 3.2 | 6.4 | 0.00 | 0.00 | 0.00 | 22 | 1005.7 |
| 20260504210432 | 20 | 252 | 3.2 | 9.7 | 0.00 | 0.00 | 0.00 | 23 | 1005.9 |
| 20260504205929 | 19 | 188 | 3.2 | 9.7 | 0.00 | 0.00 | 0.00 | 23 | 1005.8 |
| 20260504205427 | 20 | 189 | 4.8 | 8.0 | 0.00 | 0.00 | 0.00 | 22 | 1005.9 |
| 20260504204925 | 20 | 157 | 4.8 | 9.7 | 0.00 | 0.00 | 0.00 | 22 | 1006.1 |
| 20260504204423 | 21 | 15 | 1.6 | 3.2 | 0.00 | 0.00 | 0.00 | 20 | 1005.9 |
| 20260504203922 | 21 | 220 | 3.2 | 11.3 | 0.00 | 0.00 | 0.00 | 21 | 1006.4 |
| 20260504203419 | 20 | 304 | 3.2 | 9.7 | 0.00 | 0.00 | 0.00 | 22 | 1006.5 |
| 20260504202915 | 20 | 311 | 4.8 | 8.0 | 0.00 | 0.00 | 0.00 | 22 | 1006.4 |
| 20260504202412 | 20 | 166 | 3.2 | 6.4 | 0.00 | 0.00 | 0.00 | 21 | 1006.4 |
| 20260504201909 | 19 | 346 | 0.0 | 6.4 | 0.00 | 0.00 | 0.00 | 23 | 1006.5 |
| 20260504201406 | 18 | 306 | 8.0 | 14.5 | 0.00 | 0.00 | 0.00 | 21 | 1006.5 |
| 20260504200903 | 18 | 315 | 4.8 | 9.7 | 0.00 | 0.00 | 0.00 | 22 | 1006.3 |
| 20260504200400 | 18 | 286 | 12.9 | 17.7 | 0.00 | 0.00 | 0.00 | 22 | 1006.5 |
| 20260504195856 | 19 | 317 | 12.9 | 17.7 | 0.00 | 0.00 | 0.00 | 21 | 1006.5 |
| 20260504195352 | 20 | 168 | 11.3 | 16.1 | 0.00 | 0.00 | 0.00 | 20 | 1006.7 |
| 20260504194849 | 20 | 343 | 6.4 | 6.4 | 0.00 | 0.00 | 0.00 | 18 | 1006.5 |
| 20260504194345 | 21 | 204 | 9.7 | 16.1 | 0.00 | 0.00 | 0.00 | 18 | 1006.5 |
| 20260504193841 | 20 | 10 | 3.2 | 22.5 | 0.00 | 0.00 | 0.00 | 20 | 1006.4 |
| 20260504193338 | 21 | 175 | 6.4 | 8.0 | 0.00 | 0.00 | 0.00 | 19 | 1006.4 |
| 20260504192837 | 20 | 184 | 11.3 | 16.1 | 0.00 | 0.00 | 0.00 | 19 | 1006.7 |
| 20260504192335 | 22 | 170 | 6.4 | 11.3 | 0.00 | 0.00 | 0.00 | 19 | 1006.8 |
| 20260504191833 | 22 | 232 | 3.2 | 8.0 | 0.00 | 0.00 | 0.00 | 19 | 1007.0 |
| 20260504191330 | 22 | 166 | 9.7 | 9.7 | 0.00 | 0.00 | 0.00 | 18 | 1007.2 |
| 20260504190825 | 21 | 200 | 6.4 | 14.5 | 0.00 | 0.00 | 0.00 | 19 | 1006.9 |
| 20260504190322 | 21 | 204 | 6.4 | 19.3 | 0.00 | 0.00 | 0.00 | 19 | 1007.2 |
| 20260504185818 | 19 | 119 | 1.6 | 4.8 | 0.00 | 0.00 | 0.00 | 21 | 1007.3 |
| 20260504185315 | 19 | 359 | 8.0 | 12.9 | 0.00 | 0.00 | 0.00 | 19 | 1007.2 |
| 20260504184811 | 20 | 290 | 3.2 | 9.7 | 0.00 | 0.00 | 0.00 | 20 | 1007.3 |
| 20260504184307 | 20 | 252 | 4.8 | 6.4 | 0.00 | 0.00 | 0.00 | 19 | 1007.3 |
| 20260504183803 | 20 | 289 | 4.8 | 9.7 | 0.00 | 0.00 | 0.00 | 18 | 1007.5 |
| 20260504183300 | 20 | 136 | 1.6 | 9.7 | 0.00 | 0.00 | 0.00 | 19 | 1007.6 |
| 20260504182759 | 20 | 241 | 6.4 | 12.9 | 0.00 | 0.00 | 0.00 | 20 | 1007.6 |
| 20260504182255 | 20 | 252 | 3.2 | 9.7 | 0.00 | 0.00 | 0.00 | 20 | 1007.9 |
| 20260504181753 | 21 | 303 | 3.2 | 6.4 | 0.00 | 0.00 | 0.00 | 20 | 1007.9 |
| 20260504181250 | 21 | 193 | 6.4 | 6.4 | 0.00 | 0.00 | 0.00 | 20 | 1007.9 |
| 20260504180749 | 19 | 86 | 4.8 | 12.9 | 0.00 | 0.00 | 0.00 | 19 | 1008.1 |
| 20260504180247 | 18 | 337 | 9.7 | 12.9 | 0.00 | 0.00 | 0.00 | 21 | 1008.1 |
| 20260504175745 | 19 | 342 | 3.2 | 9.7 | 0.00 | 0.00 | 0.00 | 22 | 1008.0 |
| 20260504175241 | 19 | 245 | 4.8 | 27.4 | 0.00 | 0.00 | 0.00 | 21 | 1008.3 |
| 20260504174739 | 19 | 313 | 8.0 | 9.7 | 0.00 | 0.00 | 0.00 | 22 | 1007.9 |
| 20260504174237 | 19 | 212 | 1.6 | 9.7 | 0.00 | 0.00 | 0.00 | 22 | 1008.4 |
| 20260504173733 | 20 | 125 | 4.8 | 6.4 | 0.00 | 0.00 | 0.00 | 23 | 1008.4 |
| 20260504173230 | 20 | 293 | 3.2 | 9.7 | 0.00 | 0.00 | 0.00 | 21 | 1008.4 |
| 20260504172727 | 21 | 200 | 9.7 | 11.3 | 0.00 | 0.00 | 0.00 | 20 | 1008.5 |
| 20260504172223 | 20 | 224 | 11.3 | 14.5 | 0.00 | 0.00 | 0.00 | 22 | 1008.6 |
| 20260504171720 | 18 | 267 | 3.2 | 11.3 | 0.00 | 0.00 | 0.00 | 25 | 1008.7 |
| 20260504171217 | 20 | 345 | 8.0 | 14.5 | 0.00 | 0.00 | 0.00 | 23 | 1008.6 |
| 20260504170713 | 20 | 346 | 9.7 | 9.7 | 0.00 | 0.00 | 0.00 | 22 | 1008.7 |
| 20260504170211 | 20 | 181 | 1.6 | 9.7 | 0.00 | 0.00 | 0.00 | 24 | 1008.6 |
| 20260504160129 | 16 | 319 | 1.6 | 11.3 | 0.00 | 0.00 | 0.00 | 32 | 1009.5 |
| 20260504151057 | 15 | 267 | 6.4 | 14.5 | 0.00 | 0.00 | 0.00 | 32 | 1009.5 |
| 20260504150554 | 15 | 191 | 4.8 | 12.9 | 0.00 | 0.00 | 0.00 | 31 | 1009.4 |